Buffalo, MN

2:56 PM CST on January 20, 2017 (GMT -0600)
Buffalo

Weather History for KCFE - November, 2013

Change the Weather History Date:

Tuesday, November 12, 2013

  Actual Average (KMIC) Record (KMIC)
Temperature  
Mean Temperature 20 °F -  
Max Temperature 28 °F 41 °F 64 °F (2001)
Min Temperature 11 °F 27 °F 12 °F (1997)
Degree Days  
Heating Degree Days 46    
Moisture  
Dew Point 9 °F    
Average Humidity 66    
Maximum Humidity 85    
Minimum Humidity 43    
Precipitation  
Precipitation 0.00 in - - ()
Sea Level Pressure  
Sea Level Pressure 30.66 in    
Wind  
Wind Speed 6 mph (SW)    
Max Wind Speed 10 mph    
Max Gust Speed -    
Visibility 10 miles    
Events      
Averages and records for this station are not official NWS values.
T = Trace of Precipitation, MM = Missing Value Source: NWS Daily Summary

Daily Weather History Graph

Daily Weather History Graph

Search for Another Location

Airport or City:

Trip Planner

Search our weather history database for the weather conditions in past years. The results will help you decide how hot, cold, wet, or windy it might be!

Date:

Astronomy

Nov. 12, 2013 Rise Set
Actual Time 7:09 AM CST 4:48 PM CST
Civil Twilight 6:38 AM CST 5:20 PM CST
Nautical Twilight 6:02 AM CST 5:55 PM CST
Astronomical Twilight 5:27 AM CST 6:30 PM CST
Moon 2:15 PM CST (11/12) 1:46 AM CST (11/12)
Length of Visible Light 10h 42m
Length of Day
9h 39m
Waxing Gibbous, 76% of the Moon is Illuminated
Nov 12
Waxing Gibbous
Nov 17
Full
Nov 25
Last Quarter
Dec 2
New
Dec 9
First Quarter

Hourly Weather History & Observations

Time (CST) Temp. Windchill Dew Point Humidity Pressure Visibility Wind Dir Wind Speed Gust Speed Precip Events Conditions
12:15 AM 13.5 °F 4.4 °F 5.9 °F 72% 30.74 in 10.0 mi WNW 5.8 mph - N/A   Scattered Clouds
12:36 AM 13.6 °F 4.6 °F 6.4 °F 73% 30.75 in 10.0 mi WNW 5.8 mph - N/A   Overcast
12:56 AM 13.6 °F 3.5 °F 6.8 °F 74% 30.75 in 10.0 mi WNW 6.9 mph - N/A   Overcast
1:15 AM 13.5 °F 4.4 °F 6.8 °F 75% 30.74 in 10.0 mi WNW 5.8 mph - N/A   Overcast
1:36 AM 13.1 °F 2.8 °F 6.8 °F 76% 30.74 in 10.0 mi WNW 6.9 mph - N/A   Mostly Cloudy
1:56 AM 12.9 °F 5.2 °F 6.8 °F 77% 30.74 in 10.0 mi WNW 4.6 mph - N/A   Scattered Clouds
2:15 AM 12.4 °F 2.0 °F 6.8 °F 78% 30.75 in 10.0 mi WNW 6.9 mph - N/A   Clear
2:36 AM 12.2 °F 2.9 °F 6.4 °F 78% 30.75 in 10.0 mi WNW 5.8 mph - N/A   Clear
2:56 AM 12.2 °F 2.9 °F 6.3 °F 77% 30.76 in 10.0 mi WNW 5.8 mph - N/A   Clear
3:16 AM 12.2 °F 4.3 °F 6.3 °F 77% 30.76 in 10.0 mi NW 4.6 mph - N/A   Clear
3:36 AM 11.8 °F 5.7 °F 6.3 °F 78% 30.76 in 10.0 mi WNW 3.5 mph - N/A   Clear
3:56 AM 11.8 °F 5.7 °F 6.3 °F 78% 30.76 in 10.0 mi WNW 3.5 mph - N/A   Clear
4:16 AM 11.8 °F 5.7 °F 6.3 °F 78% 30.77 in 10.0 mi WNW 3.5 mph - N/A   Clear
4:36 AM 11.7 °F 5.5 °F 5.9 °F 78% 30.77 in 10.0 mi WNW 3.5 mph - N/A   Clear
4:56 AM 11.5 °F 2.1 °F 5.9 °F 78% 30.76 in 10.0 mi West 5.8 mph - N/A   Clear
5:16 AM 11.8 °F 2.5 °F 6.4 °F 79% 30.76 in 10.0 mi West 5.8 mph - N/A   Clear
5:36 AM 11.8 °F 1.3 °F 6.4 °F 79% 30.77 in 10.0 mi WNW 6.9 mph - N/A   Clear
5:55 AM 11.8 °F 2.5 °F 6.1 °F 78% 30.77 in 10.0 mi WNW 5.8 mph - N/A   Clear
6:16 AM 11.7 °F 3.7 °F 5.9 °F 78% 30.77 in 10.0 mi WNW 4.6 mph - N/A   Clear
6:36 AM 11.8 °F 3.9 °F 5.9 °F 77% 30.77 in 10.0 mi West 4.6 mph - N/A   Clear
6:55 AM 12.0 °F 4.1 °F 5.9 °F 76% 30.77 in 10.0 mi WNW 4.6 mph - N/A   Clear
7:16 AM 12.0 °F 4.1 °F 6.8 °F 80% 30.76 in 10.0 mi WNW 4.6 mph - N/A   Clear
7:36 AM 12.2 °F 4.3 °F 7.7 °F 82% 30.76 in 10.0 mi West 4.6 mph - N/A   Clear
7:55 AM 12.4 °F - 7.9 °F 82% 30.76 in 10.0 mi Calm Calm - N/A   Clear
8:16 AM 12.0 °F - 8.4 °F 85% 30.77 in 10.0 mi Calm Calm - N/A   Clear
8:36 AM 14.0 °F 3.9 °F 9.7 °F 83% 30.77 in 10.0 mi West 6.9 mph - N/A   Clear
8:55 AM 14.9 °F 5.0 °F 9.9 °F 80% 30.77 in 10.0 mi West 6.9 mph - N/A   Clear
9:16 AM 16.3 °F 7.8 °F 10.8 °F 79% 30.76 in 10.0 mi WSW 5.8 mph - N/A   Clear
9:36 AM 17.4 °F 9.1 °F 10.8 °F 75% 30.77 in 10.0 mi WSW 5.8 mph - N/A   Clear
9:56 AM 18.3 °F 11.5 °F 9.9 °F 70% 30.76 in 10.0 mi SW 4.6 mph - N/A   Clear
10:16 AM 19.6 °F 11.7 °F 10.2 °F 67% 30.75 in 10.0 mi SW 5.8 mph - N/A   Clear
10:35 AM 20.5 °F 12.8 °F 8.6 °F 60% 30.75 in 10.0 mi SSW 5.8 mph - N/A   Clear
10:56 AM 21.6 °F 13.0 °F 8.2 °F 57% 30.74 in 10.0 mi WSW 6.9 mph - N/A   Clear
11:16 AM 22.1 °F 12.8 °F 8.4 °F 56% 30.73 in 10.0 mi SSW 8.1 mph - N/A   Clear
11:35 AM 23.0 °F 12.4 °F 9.5 °F 56% 30.73 in 10.0 mi SW 10.4 mph - N/A   Clear
11:56 AM 23.7 °F 15.6 °F 9.1 °F 54% 30.73 in 10.0 mi SW 6.9 mph - N/A   Clear
12:15 PM 23.9 °F 15.8 °F 8.4 °F 52% 30.72 in 10.0 mi WSW 6.9 mph - N/A   Clear
12:36 PM 25.2 °F 17.3 °F 8.6 °F 50% 30.70 in 10.0 mi WSW 6.9 mph - N/A   Clear
12:56 PM 25.5 °F 16.2 °F 8.4 °F 48% 30.69 in 10.0 mi WSW 9.2 mph - N/A   Clear
1:15 PM 26.1 °F 17.6 °F 8.6 °F 48% 30.68 in 10.0 mi South 8.1 mph - N/A   Clear
1:36 PM 26.2 °F 19.6 °F 8.8 °F 48% 30.66 in 10.0 mi South 5.8 mph - N/A   Clear
1:56 PM 26.6 °F 19.1 °F 7.9 °F 45% 30.65 in 10.0 mi SSW 6.9 mph - N/A   Clear
2:15 PM 27.3 °F 20.9 °F 8.6 °F 45% 30.65 in 10.0 mi SSW 5.8 mph - N/A   Clear
2:36 PM 27.5 °F 20.2 °F 7.9 °F 44% 30.64 in 10.0 mi SSW 6.9 mph - N/A   Clear
2:56 PM 27.7 °F 20.4 °F 8.4 °F 44% 30.63 in 10.0 mi SW 6.9 mph - N/A   Clear
3:15 PM 27.9 °F 19.1 °F 7.7 °F 43% 30.62 in 10.0 mi SSW 9.2 mph - N/A   Clear
3:36 PM 28.0 °F 20.8 °F 8.8 °F 44% 30.62 in 10.0 mi SSW 6.9 mph - N/A   Clear
3:56 PM 27.9 °F 22.6 °F 9.3 °F 46% 30.62 in 10.0 mi SW 4.6 mph - N/A   Clear
4:15 PM 27.3 °F 19.9 °F 9.3 °F 47% 30.62 in 10.0 mi SW 6.9 mph - N/A   Clear
4:36 PM 26.6 °F 20.0 °F 10.0 °F 50% 30.62 in 10.0 mi SSW 5.8 mph - N/A   Clear
4:56 PM 26.4 °F 22.4 °F 9.7 °F 49% 30.60 in 10.0 mi South 3.5 mph - N/A   Clear
5:16 PM 25.9 °F 21.7 °F 10.4 °F 52% 30.58 in 10.0 mi South 3.5 mph - N/A   Clear
5:36 PM 25.3 °F 19.7 °F 10.9 °F 54% 30.58 in 10.0 mi South 4.6 mph - N/A   Clear
5:55 PM 24.8 °F 16.9 °F 11.7 °F 57% 30.56 in 10.0 mi South 6.9 mph - N/A   Clear
6:16 PM 24.8 °F 17.9 °F 12.0 °F 58% 30.58 in 10.0 mi SSW 5.8 mph - N/A   Clear
6:36 PM 24.6 °F 18.8 °F 12.0 °F 59% 30.57 in 10.0 mi South 4.6 mph - N/A   Clear
6:55 PM 24.3 °F 17.3 °F 11.8 °F 59% 30.55 in 10.0 mi South 5.8 mph - N/A   Clear
7:16 PM 23.7 °F 14.7 °F 12.2 °F 61% 30.54 in 10.0 mi South 8.1 mph - N/A   Clear
7:36 PM 23.7 °F 15.6 °F 12.9 °F 63% 30.53 in 10.0 mi South 6.9 mph - N/A   Clear
7:55 PM 23.0 °F 14.7 °F 12.7 °F 65% 30.52 in 10.0 mi South 6.9 mph - N/A   Clear
8:16 PM 22.8 °F 13.6 °F 12.9 °F 66% 30.51 in 10.0 mi South 8.1 mph - N/A   Clear
8:36 PM 22.5 °F 14.1 °F 13.5 °F 68% 30.50 in 10.0 mi South 6.9 mph - N/A   Clear
8:55 PM 22.1 °F 14.7 °F 14.0 °F 71% 30.50 in 10.0 mi South 5.8 mph - N/A   Clear
9:16 PM 22.1 °F 17.4 °F 14.2 °F 72% 30.50 in 10.0 mi South 3.5 mph - N/A   Clear
9:36 PM 22.1 °F 14.7 °F 14.2 °F 72% 30.49 in 10.0 mi South 5.8 mph - N/A   Clear
9:55 PM 21.9 °F 15.7 °F 14.2 °F 72% 30.48 in 10.0 mi South 4.6 mph - N/A   Clear
10:16 PM 21.9 °F 17.2 °F 14.2 °F 72% 30.47 in 10.0 mi South 3.5 mph - N/A   Clear
10:36 PM 21.6 °F 14.0 °F 14.0 °F 73% 30.46 in 10.0 mi South 5.8 mph - N/A   Clear
10:55 PM 21.4 °F 15.1 °F 14.0 °F 73% 30.45 in 10.0 mi South 4.6 mph - N/A   Clear
11:16 PM 21.2 °F 11.7 °F 14.0 °F 74% 30.43 in 10.0 mi South 8.1 mph - N/A   Clear
11:35 PM 21.6 °F 13.0 °F 14.4 °F 74% 30.42 in 10.0 mi South 6.9 mph - N/A   Clear
11:56 PM 21.6 °F 15.3 °F 14.4 °F 74% 30.41 in 10.0 mi South 4.6 mph - N/A   Clear